Terminal Aerodrome Forecast
Issued by NWS

Home | Current Version | Previous Version | Text Only | Print | Product List | Glossary On
Versions: 1 2 3 4 5 6 7 8 9 10 11 12 13 14 15 16 17 18 19 20 21 22 23 24 25 26 27 28 29 30 31 32 33 34 35 36 37 38 39 40 41 42 43 44 45 46 47 48 49 50
020
FTUS41 KCTP 101740
TAFUNV
TAF
KUNV 101740Z 1018/1118 26015G22KT P6SM -SHSN BKN027 OVC035
     FM102000 24012G22KT P6SM -SHSN BKN025 OVC030
      TEMPO 1023/1102 1/2SM SHSN VV008
     FM110200 30015G28KT 5SM -SHSN BR OVC030=

USA.gov is the U.S. government's official web portal to all federal, state and local government web resources and services.